Flag for Pakistan Weather past 2 weeks in Islamabad, Pakistan

Now
88 °F

Scattered clouds.


Feels Like: 85 °F
Forecast: 69 / 96 °F
Wind: 12 mph from West

Location: Islamabad Airport


UV Index: 7 (High)

Visibility: N/A


Pressure: 29.80 "Hg

Humidity: 29%

Dew point: 52 °F

Location of IslamabadLocation

Historic Weather in Islamabad

°F

Islamabad temperature yesterday

Maximum temperature yesterday: 91 °F (at 3:00 PM)
Minimum temperature yesterday: 64 °F (at 5:00 AM)
Average temperature yesterday: 78 °F

Past Weeks' High & Low Weather Summary

 TemperatureHumidityPressure
High91 °F (Apr 23, 3:00 PM)88% (Apr 18, 8:00 AM)30.07 "Hg (Apr 18, 8:00 AM)
Low57 °F (Apr 20, 4:00 AM)16% (Apr 10, 2:00 PM)29.80 "Hg (Apr 12, 5:00 PM)
Average72 °F52%29.95 "Hg
* Reported Apr 9 6:00 PM — Apr 24 6:00 PM, Islamabad, Weather by CustomWeather, © 2014

Note: Actual official high and low records may vary slightly from our data, if they occured in-between our weather recording intervals... More about our weather records

Advertising

Historic Weather Conditions — Data for Previous 24 hours

 ConditionsComfort  
Time TempWeatherWind HumidityBarometerVisibility
6:00 PM
Apr 24
88 °FScattered clouds.12 mph29%29.80 "HgN/A
5:00 PM91 °FScattered clouds.12 mph24%29.80 "HgN/A
4:00 PM91 °FScattered clouds.9 mph23%29.80 "HgN/A
3:00 PM91 °FScattered clouds.9 mph23%29.80 "HgN/A
2:00 PM91 °FScattered clouds.9 mph24%29.83 "HgN/A
1:00 PM90 °FScattered clouds.9 mph26%29.86 "HgN/A
12:00 PM88 °FScattered clouds.9 mph29%29.89 "HgN/A
11:00 AM86 °FPassing clouds.9 mph33%29.89 "HgN/A
10:00 AM82 °FPassing clouds.7 mph35%29.92 "HgN/A
9:00 AM81 °FSunny.5 mph37%29.89 "Hg10 mi
8:00 AM75 °FSunny.5 mph41%29.89 "Hg10 mi
7:00 AM70 °FSunny.5 mph53%29.89 "Hg10 mi
6:00 AM66 °FSunny.No wind60%29.89 "Hg10 mi
5:00 AM66 °FClear.No wind64%29.86 "Hg5 mi
4:00 AM68 °FClear.7 mph53%29.86 "Hg5 mi
3:00 AM70 °FClear.5 mph53%29.86 "Hg5 mi
2:00 AM72 °FClear.5 mph50%29.86 "Hg5 mi
1:00 AM72 °FClear.9 mph50%29.89 "Hg5 mi
12:00 AM73 °FClear.7 mph47%29.89 "Hg5 mi
11:00 PM
Apr 23
73 °FPassing clouds.5 mph50%29.89 "Hg5 mi
10:00 PM75 °FPassing clouds.12 mph44%29.89 "Hg5 mi
9:00 PM77 °FPassing clouds.12 mph42%29.89 "Hg5 mi
8:00 PM81 °FPassing clouds.5 mph34%29.86 "Hg5 mi
7:00 PM82 °FPassing clouds.7 mph30%29.86 "HgN/A
Weather by CustomWeather, © 2014

See weather overview